[[{"header":{"parameterUnit":"m.s-1","parameterCategory":1,"la1":30.2991,"la2":30.254,"lo1":-89.0895,"lo2":-89.0444,"dy":0.0017,"dx":0.0017,"nx":28,"ny":28,"refTime":"2023-08-22T09:00:00:Z","depth":0,"parameterNumber":2,"parameterNumberName":"U-component_of_WINDS"},"data":[0,0,0,0,0,0,0,0,0,0,0,0,0,0,0,0,0,0,0,0,0,0,0,0,0,0,0,0,0,0,0,0,0,0,0,0,0,0,0,0,0,0,0,0,0,0,0,0,0,0,0,0,0,0,0,0,0,0,1.6098,1.6098,0,1.6045,1.6045,1.6044,1.5935,1.5933,1.5931,1.5928,1.5878,1.5878,1.5879,0,0,0,0,0,0,0,0,0,0,0,0,0,1.6108,1.6109,1.6098,1.6098,1.6097,1.6046,1.6045,1.6044,1.5935,1.5933,1.593,1.5927,1.5877,1.5878,1.5879,0,0,0,0,0,0,0,0,0,0,0,0,0,1.6085,1.6109,1.6098,1.6036,1.603,1.6046,1.6045,1.6044,1.5936,1.5933,1.5929,1.5926,1.5877,1.5878,1.5879,1.5952,0,0,1.5882,1.5883,0,0,0,0,0,0,0,0,1.6086,1.6085,1.6046,1.6041,1.6034,1.5993,1.603,1.6013,1.5937,1.5972,1.5928,1.5925,1.5919,1.5916,1.5914,1.5949,1.5947,1.5882,1.5883,1.5884,1.5884,0,0,0,0,0,0,0,1.6088,1.6086,1.6077,1.6046,1.6038,1.6012,1.6005,1.6026,1.5965,1.5969,1.596,1.5956,1.5915,1.5913,1.5912,1.5946,1.5882,1.5883,1.5884,1.5884,1.6039,1.6042,0,0,0,0,0,0,1.6098,1.6088,1.6079,1.6076,1.6052,1.6015,1.6007,1.601,1.5964,1.5954,1.5958,1.5951,1.5913,1.5911,1.591,1.5992,1.5884,1.5885,1.5885,1.6036,1.604,1.6044,0,0,0,0,0,0,1.6099,1.6098,1.6081,1.608,1.6076,1.6018,1.6022,1.601,1.6008,1.5956,1.5945,1.5967,1.591,1.5908,1.5942,1.5988,1.5885,1.5886,1.6032,1.6037,1.6042,1.6157,0,0,0,0,0,0,1.61,1.6099,1.6125,1.6081,1.6076,1.6114,1.6025,1.6012,1.601,1.5999,1.5962,1.5953,1.5908,1.5941,1.5943,1.5988,1.5887,1.6027,1.6034,1.604,1.6149,1.6165,1.618,0,0,0,0,0,1.61,1.6161,1.6127,1.6127,1.6107,1.6117,1.6114,1.606,1.6014,1.6041,1.6007,1.5954,1.5983,1.5945,1.5947,1.5993,1.6024,1.6032,1.604,1.6142,1.6162,1.6179,0,0,0,0,0,0,1.6213,1.6154,1.6116,1.6163,1.6146,1.6098,1.613,1.6083,1.6079,1.6069,1.6003,1.5996,1.6039,1.6019,1.5978,1.6061,1.5995,1.6004,1.6072,1.6091,1.6106,1.6111,1.5888,0,0,0,0,0,1.6243,1.6254,1.6202,1.6249,1.6242,1.6188,1.619,1.615,1.6129,1.6121,1.609,1.6074,1.6079,1.6084,1.6086,1.6145,1.6136,1.6178,1.6193,1.6206,1.6214,1.6245,1.6263,1.6069,1.6069,1.6069,0,0,1.6306,1.6275,1.6286,1.6271,1.6253,1.6267,1.6182,1.6201,1.6211,1.6124,1.6154,1.6131,1.6108,1.6155,1.6174,1.614,1.6266,1.6216,1.6227,1.6228,1.6255,1.6274,1.629,1.6075,1.6074,1.6073,0,0,1.6427,1.6405,1.6441,1.6425,1.6397,1.6361,1.637,1.6329,1.631,1.6339,1.6274,1.6286,1.6297,1.6283,1.6277,1.6394,1.6346,1.6397,1.6478,1.6509,1.6524,1.6538,1.658,1.6596,1.6405,1.6406,1.6406,0,1.6509,1.6527,1.6467,1.6489,1.6485,1.6406,1.6444,1.6431,1.6406,1.6406,1.6367,1.6379,1.6358,1.6401,1.643,1.6427,1.6437,1.6401,1.6527,1.654,1.6551,1.6591,1.6607,1.6412,1.6411,1.6411,1.641,0,1.6629,1.6643,1.6676,1.6653,1.6653,1.6683,1.6629,1.6635,1.6596,1.6564,1.6594,1.6566,1.6561,1.6568,1.653,1.6607,1.6586,1.6539,1.6471,1.6577,1.6614,1.6628,1.6421,1.6419,1.6417,1.6416,0,0,1.6821,1.6764,1.6777,1.6766,1.6731,1.6741,1.6768,1.6762,1.677,1.6756,1.6778,1.6788,1.6744,1.6738,1.6697,1.6724,1.682,1.6673,1.6671,1.6702,1.6904,1.694,1.6959,1.6787,1.6789,1.6791,1.6906,0,1.6935,1.6977,1.6924,1.6978,1.699,1.6915,1.6939,1.6921,1.6892,1.6899,1.6867,1.6876,1.6816,1.6812,1.6835,1.6803,1.6859,1.6794,1.6808,1.6809,1.6817,1.6978,1.7016,1.7126,1.692,1.6922,1.6924,0,1.7074,1.7065,1.7121,1.7082,1.7085,1.7107,1.7098,1.7105,1.7083,1.706,1.7054,1.7005,1.703,1.6964,1.6998,1.6955,1.6958,1.6943,1.6946,1.6946,1.6873,1.6983,1.7159,1.7176,1.6945,1.6944,1.6942,0,1.7209,1.7212,1.7245,1.7238,1.7193,1.7211,1.7193,1.7168,1.7168,1.716,1.716,1.7156,1.7154,1.7152,1.7104,1.706,1.7145,1.7075,1.7128,1.7129,1.7149,1.7149,1.7329,1.715,1.715,1.7149,1.7149,0,1.7342,1.738,1.7305,1.7326,1.7365,1.7304,1.7346,1.7321,1.7299,1.7314,1.7249,1.7266,1.72,1.721,1.7172,1.7207,1.7207,1.719,1.7179,1.7196,1.7198,1.7197,1.7189,1.7154,1.7153,1.7152,1.7151,0,1.75,1.7452,1.7483,1.7438,1.7428,1.746,1.7421,1.744,1.7406,1.7427,1.7428,1.7376,1.7384,1.7335,1.7335,1.731,1.7363,1.7339,1.7371,1.7364,1.7419,1.7415,1.7606,1.7629,1.7435,1.7436,1.7438,0,1.7589,1.7616,1.7573,1.7579,1.7564,1.7573,1.7573,1.7514,1.7517,1.7494,1.7515,1.7517,1.7516,1.7533,1.7496,1.7495,1.7472,1.7538,1.7471,1.7487,1.7474,1.7473,1.7476,1.7553,1.7555,1.7557,1.7559,0,1.7752,1.7727,1.7728,1.7722,1.7723,1.7715,1.7703,1.7711,1.7648,1.7654,1.7661,1.766,1.7659,1.7663,1.7655,1.7637,1.7589,1.758,1.7593,1.761,1.7628,1.762,1.741,1.7576,1.7575,1.7573,1.7572,1.7572,1.7879,1.7899,1.7873,1.7876,1.7861,1.7852,1.7866,1.7835,1.7839,1.7833,1.7798,1.7812,1.7789,1.7773,1.7761,1.7772,1.774,1.7758,1.7762,1.7768,1.7778,1.7625,1.777,1.7769,1.7769,1.7768,1.7768,0,1.8039,1.8018,1.8022,1.8007,1.8011,1.7963,1.7947,1.7954,1.7966,1.7949,1.7949,1.7958,1.7961,1.7924,1.7923,1.7939,1.7916,1.7941,1.7939,1.7936,1.7806,1.7796,1.7959,1.7959,1.7959,1.7959,1.7959,1.7959,1.8123,1.8155,1.8127,1.8151,1.813,1.8142,1.8138,1.8129,1.8115,1.8127,1.8129,1.8105,1.808,1.8077,1.8078,1.8067,1.807,1.8103,1.8085,1.7964,1.7945,1.7928,1.7918,1.8104,1.8104,1.8214,1.8215,1.8216]},{"header":{"parameterUnit":"m.s-1","parameterCategory":1,"la1":30.2991,"la2":30.254,"lo1":-89.0895,"lo2":-89.0444,"dy":0.0017,"dx":0.0017,"nx":28,"ny":28,"refTime":"2023-08-22T09:00:00:Z","depth":0,"parameterNumber":3,"parameterNumberName":"V-component_of_WINDS"},"data":[0,0,0,0,0,0,0,0,0,0,0,0,0,0,0,0,0,0,0,0,0,0,0,0,0,0,0,0,0,0,0,0,0,0,0,0,0,0,0,0,0,0,0,0,0,0,0,0,0,0,0,0,0,0,0,0,0,0,-0.1283,-0.1284,0,-0.1371,-0.1372,-0.1373,-0.1444,-0.1444,-0.1445,-0.1446,-0.1535,-0.1537,-0.1539,0,0,0,0,0,0,0,0,0,0,0,0,0,-0.1177,-0.1178,-0.1283,-0.1284,-0.1285,-0.137,-0.1372,-0.1373,-0.1444,-0.1444,-0.1445,-0.1446,-0.1535,-0.1537,-0.1539,0,0,0,0,0,0,0,0,0,0,0,0,0,-0.1239,-0.1179,-0.1283,-0.1331,-0.1336,-0.137,-0.1372,-0.1373,-0.1443,-0.1445,-0.1446,-0.1447,-0.1534,-0.1537,-0.1539,-0.1533,0,0,-0.1547,-0.1548,0,0,0,0,0,0,0,0,-0.1236,-0.1243,-0.1323,-0.1327,-0.1333,-0.1397,-0.1367,-0.1427,-0.1443,-0.1403,-0.1446,-0.1447,-0.1489,-0.1495,-0.1509,-0.1537,-0.1541,-0.1547,-0.1549,-0.155,-0.1551,0,0,0,0,0,0,0,-0.1231,-0.124,-0.1318,-0.1324,-0.133,-0.1348,-0.1358,-0.1379,-0.1438,-0.1406,-0.1412,-0.1421,-0.1492,-0.1506,-0.1512,-0.1542,-0.1547,-0.1549,-0.1551,-0.1552,-0.157,-0.1569,0,0,0,0,0,0,-0.122,-0.1236,-0.1315,-0.132,-0.1286,-0.1349,-0.136,-0.1376,-0.1438,-0.1449,-0.142,-0.1424,-0.1501,-0.1509,-0.1515,-0.1512,-0.155,-0.1552,-0.1554,-0.1571,-0.157,-0.1568,0,0,0,0,0,0,-0.1217,-0.1226,-0.1311,-0.128,-0.1292,-0.1349,-0.1366,-0.1377,-0.1392,-0.1449,-0.146,-0.1424,-0.1503,-0.1511,-0.1528,-0.1516,-0.1553,-0.1556,-0.1572,-0.1571,-0.1569,-0.1505,0,0,0,0,0,0,-0.1214,-0.1225,-0.1223,-0.1279,-0.1293,-0.1323,-0.1366,-0.1378,-0.1396,-0.1402,-0.1455,-0.1465,-0.1504,-0.1524,-0.153,-0.152,-0.1558,-0.1573,-0.1571,-0.157,-0.1509,-0.1502,-0.1496,0,0,0,0,0,-0.121,-0.1201,-0.1222,-0.1232,-0.1292,-0.1322,-0.133,-0.1375,-0.1394,-0.1393,-0.143,-0.1464,-0.1516,-0.1525,-0.1533,-0.1523,-0.1574,-0.1572,-0.157,-0.1512,-0.1503,-0.1496,0,0,0,0,0,0,-0.1142,-0.121,-0.1234,-0.1243,-0.1276,-0.1334,-0.1334,-0.1364,-0.1393,-0.1397,-0.1452,-0.1463,-0.1474,-0.15,-0.1509,-0.1521,-0.155,-0.1549,-0.1503,-0.1495,-0.1489,-0.1482,-0.156,0,0,0,0,0,-0.1129,-0.1147,-0.1205,-0.1208,-0.1223,-0.1275,-0.129,-0.1322,-0.1358,-0.1372,-0.141,-0.1444,-0.1469,-0.1483,-0.1509,-0.1513,-0.1526,-0.151,-0.1504,-0.1498,-0.1497,-0.1501,-0.1495,-0.1561,-0.1561,-0.1561,0,0,-0.1101,-0.114,-0.1148,-0.1195,-0.1225,-0.1243,-0.1287,-0.1304,-0.1318,-0.1375,-0.1393,-0.1422,-0.1463,-0.1473,-0.148,-0.1496,-0.1481,-0.1495,-0.149,-0.1492,-0.1498,-0.1491,-0.1486,-0.1559,-0.1559,-0.156,0,0,-0.1059,-0.109,-0.1096,-0.1124,-0.1168,-0.1203,-0.1204,-0.1257,-0.1278,-0.1297,-0.1341,-0.1358,-0.1398,-0.1426,-0.1446,-0.1414,-0.1446,-0.142,-0.1386,-0.139,-0.1385,-0.138,-0.1369,-0.1364,-0.1419,-0.1419,-0.1419,0,-0.1018,-0.1047,-0.1095,-0.111,-0.1129,-0.1182,-0.1188,-0.1213,-0.1263,-0.1275,-0.1293,-0.1345,-0.1376,-0.1394,-0.1386,-0.14,-0.1403,-0.1415,-0.1381,-0.1378,-0.1374,-0.1364,-0.136,-0.1415,-0.1416,-0.1416,-0.1416,0,-0.0995,-0.1014,-0.1014,-0.1061,-0.108,-0.109,-0.114,-0.1154,-0.1184,-0.1216,-0.1235,-0.1274,-0.1309,-0.1315,-0.1345,-0.1337,-0.1346,-0.1371,-0.1402,-0.1364,-0.1355,-0.1352,-0.1411,-0.1412,-0.1413,-0.1414,0,0,-0.0914,-0.0987,-0.0986,-0.1007,-0.1059,-0.1075,-0.1087,-0.1121,-0.1132,-0.1164,-0.1176,-0.1209,-0.1233,-0.1255,-0.1288,-0.1291,-0.1263,-0.1317,-0.1319,-0.1306,-0.1257,-0.1237,-0.1232,-0.1285,-0.1284,-0.1284,-0.1254,0,-0.088,-0.0906,-0.0949,-0.0961,-0.0979,-0.1029,-0.104,-0.1073,-0.1104,-0.1124,-0.1158,-0.118,-0.1211,-0.1224,-0.1229,-0.1265,-0.1254,-0.1268,-0.1296,-0.1297,-0.1284,-0.1227,-0.1207,-0.1176,-0.125,-0.125,-0.125,0,-0.0845,-0.0874,-0.0887,-0.0938,-0.0947,-0.0956,-0.099,-0.1008,-0.1047,-0.1069,-0.1093,-0.1129,-0.1145,-0.1172,-0.1195,-0.1203,-0.1217,-0.1237,-0.1237,-0.1241,-0.1271,-0.123,-0.1168,-0.1163,-0.1245,-0.1245,-0.1245,0,-0.0784,-0.0827,-0.084,-0.0857,-0.0916,-0.0921,-0.0946,-0.0986,-0.1003,-0.1033,-0.1045,-0.1076,-0.1093,-0.1116,-0.1159,-0.1175,-0.1177,-0.1208,-0.1196,-0.1195,-0.1194,-0.1194,-0.1133,-0.1203,-0.1203,-0.1203,-0.1203,0,-0.0742,-0.0748,-0.0814,-0.0822,-0.083,-0.088,-0.0886,-0.0916,-0.095,-0.0965,-0.101,-0.1023,-0.108,-0.1099,-0.1133,-0.1147,-0.1154,-0.1173,-0.1182,-0.1169,-0.1166,-0.1179,-0.1182,-0.1202,-0.1202,-0.1202,-0.1203,0,-0.0676,-0.072,-0.0738,-0.0792,-0.0806,-0.0809,-0.0856,-0.0866,-0.0899,-0.0917,-0.0924,-0.0976,-0.1002,-0.1047,-0.1086,-0.1108,-0.1115,-0.113,-0.1102,-0.1107,-0.1092,-0.1093,-0.1038,-0.1033,-0.1105,-0.1104,-0.1104,0,-0.0646,-0.0652,-0.0707,-0.072,-0.0743,-0.0763,-0.0781,-0.083,-0.0847,-0.0891,-0.0895,-0.0924,-0.095,-0.0987,-0.1029,-0.1058,-0.1075,-0.1053,-0.108,-0.1066,-0.1075,-0.1074,-0.1075,-0.1047,-0.1046,-0.1045,-0.1045,0,-0.0589,-0.061,-0.0634,-0.0665,-0.0685,-0.0712,-0.0742,-0.075,-0.0806,-0.0822,-0.0848,-0.0868,-0.0907,-0.0935,-0.097,-0.0996,-0.103,-0.1036,-0.1035,-0.1022,-0.1005,-0.1014,-0.1085,-0.1037,-0.1038,-0.1039,-0.1039,-0.1039,-0.054,-0.0548,-0.0587,-0.0612,-0.0639,-0.0666,-0.0678,-0.0712,-0.0735,-0.077,-0.0798,-0.0822,-0.086,-0.0911,-0.0935,-0.0954,-0.097,-0.0968,-0.0967,-0.0966,-0.0961,-0.1001,-0.0961,-0.0961,-0.0961,-0.0962,-0.0962,0,-0.0485,-0.0513,-0.0536,-0.0575,-0.0595,-0.0624,-0.0658,-0.0673,-0.0693,-0.0726,-0.075,-0.078,-0.0807,-0.0851,-0.0881,-0.0889,-0.0905,-0.0895,-0.0895,-0.09,-0.0945,-0.0943,-0.0881,-0.0881,-0.0881,-0.0882,-0.0882,-0.0882,-0.0459,-0.0473,-0.0499,-0.0527,-0.0555,-0.0579,-0.0595,-0.062,-0.0646,-0.0677,-0.07,-0.0728,-0.0765,-0.0799,-0.0825,-0.0837,-0.0847,-0.0832,-0.0849,-0.089,-0.0897,-0.0904,-0.0903,-0.0834,-0.0833,-0.0802,-0.0802,-0.0802]}]]